STARLINK-2528 (48307 NORAD) Tracking and Keplerian Element Data

This shows tracking and keplerian element data for the satellite.

Feedback or suggestion? Click here.




ElementValue
Catalog48307
NameSTARLINK-2528
Epoch Orbit196
Epoch Day173.83334491
Epoch Year2021
RAAN258.7276
Inclination53.0512
Eccentricity0.0001127
Argument of Perigee93.5965
Mean Anonmoly226.7975
Mean Motion15.411815
Decay Rate-0.01085151
L11 48307U 21036AH 21173.83334491 -.01085151 00000-0 -28069-1 0 9992
L22 48307 53.0512 258.7276 0001127 93.5965 226.7975 15.41181500 1965

Live tracking and technical data element details for STARLINK-2528 (NORAD 48307). STARLINK-2528 can be tracked NOW for your location showing map with azimuth and elevation plus other details from your city location.

Track the satellite on the map from your city or location and see movement details for azimuth, elevation, latitude, longitude, range, height, and movement on the map or in text.







IsCatalogInMostPopularTable: catalog: 48307, numindb: 20
Update: records affected: 1



GetName: 48307 STARLINK-2528

Hit Count: updated at: Thu, 24 Jun 2021 04:11:48 GMT